This demonstration page uses our WeatherBlox Daily Observations layout. Learn more.

Left ArrowRight Arrow

39.92423, -83.80882

Hourly Observations for May 12, 2018

Temp ( °F °C ) Dew Point ( °F °C ) Humidity (%) Winds ( mph kmh ) Pressure ( in mb ) Visibility ( mi km ) Precip ( " mm )
12:56 am 00:56 Clear 61 16.1 55 12.8 81 81 NE 6 9 29.98 1015 10 16.0934 0 0
1:56 am 01:56 Clear 60 15.6 54 12.2 80 80 ENE 3 6 29.97 1015 10 16.0934 0 0
2:56 am 02:56 Clear 69 20.6 60 15.6 73 73 SW 9 15 29.96 1014 10 16.0934 0 0
3:56 am 03:56 Clear 69 20.6 60 15.6 73 73 SW 10 17 29.95 1014 10 16.0934 0 0
4:56 am 04:56 Clear 68 20 59 15 73 73 SW 9 15 29.95 1014 10 16.0934 0 0
5:56 am 05:56 Clear 71 21.7 59 15 66 66 SW 16 26 29.96 1014 10 16.0934 0 0
6:56 am 06:56 Sunny 71 21.7 59 15 66 66 SW 18 30 29.97 1015 10 16.0934 0 0
7:56 am 07:56 Sunny 73 22.8 59 15 62 62 SW 17 28 29.98 1015 10 16.0934 0 0
8:56 am 08:56 Sunny 76 24.4 60 15.6 58 58 WSW 20 31 30.01 1016 10 16.0934 0 0
9:56 am 09:56 Sunny 78 25.6 60 15.6 54 54 WSW 18 30 30.01 1016 10 16.0934 0 0
10:56 am 10:56 Sunny 81 27.2 62 16.7 53 53 WSW 18 30 30.01 1016 10 16.0934 0 0
11:56 am 11:56 Sunny 83 28.3 62 16.7 49 49 WSW 15 24 30 1016 10 16.0934 0 0
12:56 pm 12:56 Partly Cloudy 83 28.3 62 16.7 49 49 W 16 26 30 1016 10 16.0934 0 0
1:56 pm 13:56 Partly Cloudy 84 28.9 62 16.7 48 48 W 14 22 30 1016 10 16.0934 0 0
2:56 pm 14:56 Mostly Cloudy 83 28.3 62 16.7 49 49 WSW 15 24 30.01 1016 10 16.0934 0 0
3:56 pm 15:56 Partly Cloudy 84 28.9 62 16.7 48 48 W 15 24 30 1016 10 16.0934 0 0
4:42 pm 16:42 Mostly Cloudy with Nearby Thunderstorms 82 28 63 17 51 51 W 16 26 29.94 1014 10 16.0934 0 0
4:56 pm 16:56 Cloudy 79 26.1 61 16.1 54 54 NNW 14 22 30 1016 10 16.0934 0 0
5:03 pm 17:03 Cloudy 81 27 63 17 54 54 NNW 15 24 29.97 1015 10 16.0934 0 0
5:56 pm 17:56 Cloudy 81 27.2 62 16.7 53 53 NNW 12 19 30.01 1016 10 16.0934 0 0
6:56 pm 18:56 Mostly Sunny 80 26.7 61 16.1 52 52 NW 6 9 30.01 1016 10 16.0934 0 0
7:56 pm 19:56 Mostly Sunny 73 22.8 60 15.6 64 64 ENE 9 15 29.99 1016 10 16.0934 0 0
8:56 pm 20:56 Cloudy 71 21.7 58 14.4 63 63 NNE 10 17 30.02 1017 10 16.0934 0 0.0254
9:56 pm 21:56 Mostly Clear 65 18.3 55 12.8 70 70 ENE 10 17 30.04 1017 10 16.0934 0 0.0254
10:56 pm 22:56 Clear 60 15.6 52 11.1 75 75 ENE 9 15 30.06 1018 10 16.0934 0 0
11:56 pm 23:56 Mostly Cloudy 58 14.4 52 11.1 81 81 NE 9 15 30.06 1018 10 16.0934 0 0

Powered by AerisWeather